Location: Mountain Grove
(34.0887°N, 86.6172°W)
Time: 00:45:17
(UTC+00:00)

ERS-1 Rocket - Pass Details

Date: 14 July 2020
Orbit: 752 x 758 km, 98.5° (Epoch: 12 August)

Event Time Altitude Azimuth Distance (km) Brightness Sun altitude
Exits shadow 03:16:29 55° 107° (ESE) 903 3.0 -23.1°
Maximum altitude 03:17:06 60° 74° (ENE) 865 3.1 -23.2°
Drops below altitude 10° 03:22:03 10° 355° (N) 2,291 6.2 -23.8°
Sets 03:24:23 0° 352° (N) 3,219 7.2 -24.1°
